Time,TemperatureF,DewpointF,PressureIn,WindDirection,WindDirectionDegrees,WindSpeedMPH,WindSpeedGustMPH,Humidity,HourlyPrecipIn,Conditions,Clouds,dailyrainin,SoftwareType,DateUTC
2013-04-11 00:00:00,36.7,35.7,29.82,West,278,2.0,13.0,96,0.00,RA,SKC,0.00,WeatherDisplay:10.37,2013-04-11 05:00:00,
2013-04-11 00:05:00,36.6,35.6,29.82,WNW,292,6.0,10.0,96,0.00,RA,SKC,0.00,WeatherDisplay:10.37,2013-04-11 05:05:00,
2013-04-11 00:10:00,36.5,35.4,29.82,WNW,283,7.0,12.0,96,0.00,CLR,SKC,0.00,WeatherDisplay:10.37,2013-04-11 05:10:00,
2013-04-11 00:15:00,36.4,35.6,29.82,West,277,8.0,10.0,97,0.00,CLR,SKC,0.00,WeatherDisplay:10.37,2013-04-11 05:15:00,
2013-04-11 00:20:00,36.3,35.5,29.82,West,279,7.0,13.0,97,0.00,CLR,SKC,0.00,WeatherDisplay:10.37,2013-04-11 05:20:00,
2013-04-11 00:25:00,36.0,35.0,29.83,WNW,291,8.0,13.0,96,0.00,CLR,SKC,0.00,WeatherDisplay:10.37,2013-04-11 05:25:00,
2013-04-11 00:30:00,35.9,34.9,29.83,WNW,296,7.0,16.0,96,0.00,CLR,SKC,0.00,WeatherDisplay:10.37,2013-04-11 05:30:00,
2013-04-11 00:35:00,35.8,34.8,29.83,WNW,289,8.0,15.0,96,0.00,CLR,SKC,0.00,WeatherDisplay:10.37,2013-04-11 05:35:00,
2013-04-11 00:40:00,35.7,34.7,29.83,WNW,286,7.0,12.0,96,0.00,CLR,SKC,0.00,WeatherDisplay:10.37,2013-04-11 05:40:00,
2013-04-11 00:50:00,35.6,34.6,29.82,WNW,285,5.0,12.0,96,0.00,CLR,SKC,0.00,WeatherDisplay:10.37,2013-04-11 05:50:00,
2013-04-11 00:55:00,35.4,34.4,29.82,WNW,298,7.0,15.0,96,0.00,CLR,SKC,0.00,WeatherDisplay:10.37,2013-04-11 05:55:00,
2013-04-11 01:00:00,35.2,34.2,29.82,WNW,292,8.0,10.0,96,0.00,CLR,SKC,0.00,WeatherDisplay:10.37,2013-04-11 06:00:00,
2013-04-11 01:05:00,35.1,34.1,29.82,WNW,289,5.0,13.0,96,0.00,CLR,SKC,0.00,WeatherDisplay:10.37,2013-04-11 06:05:00,
2013-04-11 01:11:00,35.0,34.0,29.83,WNW,293,2.0,10.0,96,0.00,CLR,SKC,0.00,WeatherDisplay:10.37,2013-04-11 06:11:00,
2013-04-11 01:16:00,35.0,34.0,29.83,WNW,292,6.0,12.0,96,0.00,CLR,SKC,0.00,WeatherDisplay:10.37,2013-04-11 06:16:00,
2013-04-11 01:21:00,35.0,34.0,29.83,WNW,298,7.0,13.0,96,0.00,CLR,SKC,0.00,WeatherDisplay:10.37,2013-04-11 06:21:00,
2013-04-11 01:26:00,35.0,34.0,29.83,WNW,292,5.0,10.0,96,0.00,CLR,SKC,0.00,WeatherDisplay:10.37,2013-04-11 06:26:00,
2013-04-11 01:31:00,35.0,34.0,29.83,WNW,289,7.0,10.0,96,0.00,CLR,SKC,0.00,WeatherDisplay:10.37,2013-04-11 06:31:00,
2013-04-11 01:36:00,35.0,34.0,29.83,WNW,298,5.0,12.0,96,0.00,CLR,SKC,0.00,WeatherDisplay:10.37,2013-04-11 06:36:00,
2013-04-11 01:41:00,34.9,33.9,29.83,WNW,289,5.0,13.0,96,0.00,CLR,SKC,0.00,WeatherDisplay:10.37,2013-04-11 06:41:00,
2013-04-11 01:46:00,34.9,33.8,29.83,WNW,294,5.0,12.0,96,0.00,CLR,SKC,0.00,WeatherDisplay:10.37,2013-04-11 06:46:00,
2013-04-11 01:51:00,34.8,33.5,29.83,WNW,291,7.0,13.0,95,0.00,CLR,SKC,0.00,WeatherDisplay:10.37,2013-04-11 06:51:00,
2013-04-11 01:56:00,34.8,33.5,29.83,WNW,298,3.0,10.0,95,0.00,CLR,SKC,0.00,WeatherDisplay:10.37,2013-04-11 06:56:00,
2013-04-11 02:01:00,34.8,33.8,29.83,WNW,297,5.0,10.0,96,0.00,CLR,SKC,0.00,WeatherDisplay:10.37,2013-04-11 07:01:00,
2013-04-11 02:06:00,34.8,33.8,29.83,WNW,289,6.0,8.0,96,0.00,CLR,SKC,0.00,WeatherDisplay:10.37,2013-04-11 07:06:00,
2013-04-11 02:11:00,34.8,33.8,29.83,WNW,292,2.0,10.0,96,0.00,CLR,SKC,0.00,WeatherDisplay:10.37,2013-04-11 07:11:00,
2013-04-11 02:16:00,34.8,33.8,29.83,West,275,6.0,10.0,96,0.00,CLR,SKC,0.00,WeatherDisplay:10.37,2013-04-11 07:16:00,
2013-04-11 02:26:00,34.6,33.6,29.82,WNW,292,2.0,9.0,96,0.00,CLR,SKC,0.00,WeatherDisplay:10.37,2013-04-11 07:26:00,
2013-04-11 02:31:00,34.6,33.6,29.81,WNW,282,2.0,12.0,96,0.00,CLR,SKC,0.00,WeatherDisplay:10.37,2013-04-11 07:31:00,
2013-04-11 02:41:00,34.4,33.4,29.80,WNW,289,7.0,13.0,96,0.00,CLR,SKC,0.00,WeatherDisplay:10.37,2013-04-11 07:41:00,
2013-04-11 02:56:00,34.4,33.4,29.78,West,268,1.0,8.0,96,0.00,CLR,SKC,0.00,WeatherDisplay:10.37,2013-04-11 07:56:00,
2013-04-11 03:11:00,34.3,33.0,29.76,NW,307,6.0,10.0,95,0.00,CLR,SKC,0.00,WeatherDisplay:10.37,2013-04-11 08:11:00,
2013-04-11 03:21:00,34.1,32.9,29.77,WNW,295,5.0,10.0,95,0.00,CLR,SKC,0.00,WeatherDisplay:10.37,2013-04-11 08:21:00,
2013-04-11 03:31:00,34.1,32.8,29.78,West,274,8.0,13.0,95,0.00,CLR,SKC,0.00,WeatherDisplay:10.37,2013-04-11 08:31:00,
2013-04-11 03:41:00,34.0,32.5,29.78,West,268,8.0,12.0,94,0.00,CLR,SKC,0.00,WeatherDisplay:10.37,2013-04-11 08:41:00,
2013-04-11 03:46:00,34.0,32.5,29.78,West,270,7.0,12.0,94,0.00,CLR,SKC,0.00,WeatherDisplay:10.37,2013-04-11 08:46:00,
2013-04-11 03:51:00,33.9,32.4,29.78,WNW,285,6.0,12.0,94,0.00,CLR,SKC,0.00,WeatherDisplay:10.37,2013-04-11 08:51:00,
2013-04-11 04:01:00,33.8,32.0,29.78,WNW,286,7.0,13.0,93,0.00,CLR,SKC,0.00,WeatherDisplay:10.37,2013-04-11 09:01:00,
2013-04-11 04:06:00,33.8,32.0,29.78,West,281,3.0,10.0,93,0.00,CLR,SKC,0.00,WeatherDisplay:10.37,2013-04-11 09:06:00,
2013-04-11 04:11:00,33.8,32.0,29.77,West,281,3.0,9.0,93,0.00,CLR,SKC,0.00,WeatherDisplay:10.37,2013-04-11 09:11:00,
2013-04-11 04:21:00,33.8,32.0,29.77,WNW,293,6.0,10.0,93,0.00,CLR,SKC,0.00,WeatherDisplay:10.37,2013-04-11 09:21:00,
2013-04-11 04:31:00,33.7,31.9,29.77,West,276,3.0,7.0,93,0.00,CLR,SKC,0.00,WeatherDisplay:10.37,2013-04-11 09:31:00,
2013-04-11 04:36:00,33.7,31.9,29.77,West,278,5.0,8.0,93,0.00,CLR,SKC,0.00,WeatherDisplay:10.37,2013-04-11 09:36:00,
2013-04-11 04:41:00,33.7,31.9,29.78,WNW,284,2.0,10.0,93,0.00,CLR,SKC,0.00,WeatherDisplay:10.37,2013-04-11 09:41:00,
2013-04-11 04:51:00,33.7,31.9,29.77,West,279,5.0,8.0,93,0.00,CLR,SKC,0.00,WeatherDisplay:10.37,2013-04-11 09:51:00,
2013-04-11 04:56:00,33.7,31.9,29.77,WNW,286,6.0,10.0,93,0.00,CLR,SKC,0.00,WeatherDisplay:10.37,2013-04-11 09:56:00,
2013-04-11 05:06:00,33.7,31.9,29.78,WNW,287,6.0,10.0,93,0.00,CLR,SKC,0.00,WeatherDisplay:10.37,2013-04-11 10:06:00,
2013-04-11 05:11:00,33.7,31.6,29.79,WNW,283,3.0,10.0,92,0.00,CLR,SKC,0.00,WeatherDisplay:10.37,2013-04-11 10:11:00,
2013-04-11 05:16:00,33.8,32.0,29.79,WNW,286,0.0,8.0,93,0.00,CLR,SKC,0.00,WeatherDisplay:10.37,2013-04-11 10:16:00,
2013-04-11 05:26:00,33.7,31.6,29.79,WNW,291,3.0,10.0,92,0.00,CLR,SKC,0.00,WeatherDisplay:10.37,2013-04-11 10:26:00,
2013-04-11 05:36:00,33.7,31.6,29.80,West,265,2.0,8.0,92,0.00,CLR,SKC,0.00,WeatherDisplay:10.37,2013-04-11 10:36:00,
2013-04-11 05:41:00,33.7,31.4,29.80,West,272,6.0,10.0,91,0.00,CLR,SKC,0.00,WeatherDisplay:10.37,2013-04-11 10:41:00,
2013-04-11 05:46:00,33.7,31.1,29.80,West,265,2.0,10.0,90,0.00,CLR,SKC,0.00,WeatherDisplay:10.37,2013-04-11 10:46:00,
2013-04-11 05:51:00,33.7,31.4,29.80,West,264,1.0,8.0,91,0.00,CLR,SKC,0.00,WeatherDisplay:10.37,2013-04-11 10:51:00,
2013-04-11 05:56:00,33.7,31.4,29.80,West,277,3.0,10.0,91,0.00,CLR,SKC,0.00,WeatherDisplay:10.37,2013-04-11 10:56:00,
2013-04-11 06:01:00,33.7,31.4,29.80,West,280,0.0,5.0,91,0.00,CLR,SKC,0.00,WeatherDisplay:10.37,2013-04-11 11:01:00,
2013-04-11 06:06:00,33.7,31.4,29.78,West,281,1.0,3.0,91,0.00,CLR,SKC,0.00,WeatherDisplay:10.37,2013-04-11 11:06:00,
2013-04-11 06:11:00,33.6,31.0,29.78,NW,304,5.0,12.0,90,0.00,CLR,SKC,0.00,WeatherDisplay:10.37,2013-04-11 11:11:00,
2013-04-11 06:21:00,33.6,30.7,29.78,West,279,2.0,7.0,89,0.00,CLR,SKC,0.00,WeatherDisplay:10.37,2013-04-11 11:21:00,
2013-04-11 06:26:00,33.6,30.7,29.78,West,272,0.0,5.0,89,0.00,CLR,SKC,0.00,WeatherDisplay:10.37,2013-04-11 11:26:00,
2013-04-11 06:36:00,33.6,30.7,29.78,WNW,287,2.0,10.0,89,0.00,CLR,SKC,0.00,WeatherDisplay:10.37,2013-04-11 11:36:00,
2013-04-11 06:41:00,33.6,30.7,29.78,WNW,287,2.0,7.0,89,0.00,CLR,SKC,0.00,WeatherDisplay:10.37,2013-04-11 11:41:00,
2013-04-11 06:51:00,33.5,30.6,29.78,West,280,2.0,3.0,89,0.00,CLR,SKC,0.00,WeatherDisplay:10.37,2013-04-11 11:51:00,
2013-04-11 07:01:00,33.4,30.3,29.78,West,280,5.0,12.0,88,0.00,CLR,SKC,0.00,WeatherDisplay:10.37,2013-04-11 12:01:00,
2013-04-11 07:06:00,33.4,30.5,29.79,West,281,3.0,7.0,89,0.00,CLR,SKC,0.00,WeatherDisplay:10.37,2013-04-11 12:06:00,
2013-04-11 07:11:00,33.5,30.3,29.80,West,270,1.0,6.0,88,0.00,CLR,SKC,0.00,WeatherDisplay:10.37,2013-04-11 12:11:00,
2013-04-11 07:17:00,33.5,30.3,29.80,West,280,3.0,8.0,88,0.00,CLR,SKC,0.00,WeatherDisplay:10.37,2013-04-11 12:17:00,
2013-04-11 07:26:00,33.6,30.4,29.80,West,274,5.0,11.0,88,0.00,CLR,SKC,0.00,WeatherDisplay:10.37,2013-04-11 12:26:00,
2013-04-11 07:32:00,33.5,30.1,29.81,West,264,3.0,8.0,87,0.00,CLR,SKC,0.00,WeatherDisplay:10.37,2013-04-11 12:32:00,
2013-04-11 07:42:00,33.6,29.8,29.81,West,265,2.0,12.0,86,0.00,CLR,SKC,0.00,WeatherDisplay:10.37,2013-04-11 12:42:00,
2013-04-11 07:52:00,33.6,30.2,29.81,WSW,243,2.0,10.0,87,0.00,CLR,SKC,0.00,WeatherDisplay:10.37,2013-04-11 12:52:00,
2013-04-11 07:57:00,33.6,30.1,29.81,West,274,2.0,5.0,87,0.00,CLR,SKC,0.00,WeatherDisplay:10.37,2013-04-11 12:57:00,
2013-04-11 08:02:00,33.6,30.2,29.81,WNW,290,0.0,2.0,87,0.00,CLR,SKC,0.00,WeatherDisplay:10.37,2013-04-11 13:02:00,
2013-04-11 08:07:00,33.6,30.2,29.81,West,264,3.0,10.0,87,0.00,CLR,SKC,0.00,WeatherDisplay:10.37,2013-04-11 13:07:00,
2013-04-11 08:12:00,33.6,30.4,29.80,West,263,0.0,5.0,88,0.00,CLR,SKC,0.00,WeatherDisplay:10.37,2013-04-11 13:12:00,
2013-04-11 08:17:00,33.6,30.5,29.80,West,273,0.0,5.0,88,0.00,CLR,SKC,0.00,WeatherDisplay:10.37,2013-04-11 13:17:00,
2013-04-11 08:22:00,33.7,30.5,29.80,West,269,0.0,3.0,88,0.00,CLR,SKC,0.00,WeatherDisplay:10.37,2013-04-11 13:22:00,
2013-04-11 08:32:00,33.8,30.3,29.80,West,261,2.0,7.0,87,0.00,CLR,SKC,0.00,WeatherDisplay:10.37,2013-04-11 13:32:00,
2013-04-11 08:37:00,33.8,30.3,29.79,West,263,2.0,6.0,87,0.00,CLR,SKC,0.00,WeatherDisplay:10.37,2013-04-11 13:37:00,
2013-04-11 08:42:00,33.8,30.6,29.79,WSW,255,2.0,10.0,88,0.00,CLR,SKC,0.00,WeatherDisplay:10.37,2013-04-11 13:42:00,
2013-04-11 08:47:00,33.8,30.6,29.79,West,261,3.0,6.0,88,0.00,CLR,SKC,0.00,WeatherDisplay:10.37,2013-04-11 13:47:00,
2013-04-11 08:52:00,33.7,30.6,29.79,West,260,5.0,12.0,88,0.00,CLR,SKC,0.00,WeatherDisplay:10.37,2013-04-11 13:52:00,
2013-04-11 09:02:00,33.7,30.0,29.79,West,259,7.0,12.0,86,0.00,CLR,SKC,0.00,WeatherDisplay:10.37,2013-04-11 14:02:00,
2013-04-11 09:07:00,33.8,30.0,29.79,WSW,248,1.0,13.0,86,0.00,CLR,SKC,0.00,WeatherDisplay:10.37,2013-04-11 14:07:00,
2013-04-11 09:12:00,33.8,30.1,29.79,WSW,238,1.0,10.0,86,0.00,CLR,SKC,0.00,WeatherDisplay:10.37,2013-04-11 14:12:00,
2013-04-11 09:17:00,33.9,30.1,29.80,WSW,253,0.0,3.0,86,0.00,CLR,SKC,0.00,WeatherDisplay:10.37,2013-04-11 14:17:00,
2013-04-11 09:22:00,33.8,29.5,29.80,West,263,3.0,10.0,84,0.00,CLR,SKC,0.00,WeatherDisplay:10.37,2013-04-11 14:22:00,
2013-04-11 09:27:00,33.8,29.5,29.80,West,267,5.0,10.0,84,0.00,CLR,SKC,0.00,WeatherDisplay:10.37,2013-04-11 14:27:00,
2013-04-11 09:32:00,33.8,29.8,29.79,West,261,3.0,12.0,85,0.00,CLR,SKC,0.00,WeatherDisplay:10.37,2013-04-11 14:32:00,
2013-04-11 09:37:00,33.8,29.8,29.79,West,272,3.0,12.0,85,0.00,CLR,SKC,0.00,WeatherDisplay:10.37,2013-04-11 14:37:00,
2013-04-11 09:42:00,33.6,29.6,29.79,West,269,7.0,12.0,85,0.00,CLR,SKC,0.00,WeatherDisplay:10.37,2013-04-11 14:42:00,
2013-04-11 09:52:00,33.4,29.1,29.78,West,259,3.0,15.0,84,0.00,CLR,SKC,0.00,WeatherDisplay:10.37,2013-04-11 14:52:00,
2013-04-11 09:57:00,33.3,29.0,29.78,West,269,3.0,15.0,84,0.00,CLR,SKC,0.00,WeatherDisplay:10.37,2013-04-11 14:57:00,
2013-04-11 10:02:00,33.4,28.8,29.79,West,270,8.0,16.0,83,0.00,CLR,SKC,0.00,WeatherDisplay:10.37,2013-04-11 15:02:00,
2013-04-11 10:12:00,33.4,28.2,29.80,West,277,6.0,13.0,81,0.00,CLR,SKC,0.00,WeatherDisplay:10.37,2013-04-11 15:12:00,
2013-04-11 10:22:00,33.6,28.1,29.80,West,268,7.0,12.0,80,0.00,CLR,SKC,0.00,WeatherDisplay:10.37,2013-04-11 15:22:00,
2013-04-11 10:32:00,33.7,27.9,29.79,West,275,7.0,14.0,79,0.00,CLR,SKC,0.00,WeatherDisplay:10.37,2013-04-11 15:32:00,
2013-04-11 10:37:00,33.7,28.2,29.80,West,273,3.0,13.0,80,0.00,CLR,SKC,0.00,WeatherDisplay:10.37,2013-04-11 15:37:00,
2013-04-11 10:47:00,33.9,27.7,29.79,West,268,6.0,15.0,78,0.00,CLR,SKC,0.00,WeatherDisplay:10.37,2013-04-11 15:47:00,
2013-04-11 10:57:00,33.9,28.1,29.79,West,268,3.0,8.0,79,0.00,CLR,SKC,0.00,WeatherDisplay:10.37,2013-04-11 15:57:00,
2013-04-11 11:07:00,34.3,28.2,29.79,West,281,7.0,12.0,78,0.00,CLR,SKC,0.00,WeatherDisplay:10.37,2013-04-11 16:07:00,
2013-04-11 11:12:00,34.2,28.1,29.79,West,275,8.0,13.0,78,0.00,CLR,SKC,0.00,WeatherDisplay:10.37,2013-04-11 16:12:00,
2013-04-11 11:17:00,34.2,28.1,29.79,West,273,5.0,15.0,78,0.00,CLR,SKC,0.00,WeatherDisplay:10.37,2013-04-11 16:17:00,
2013-04-11 11:27:00,34.8,28.9,29.79,West,270,6.0,10.0,79,0.00,CLR,SKC,0.00,WeatherDisplay:10.37,2013-04-11 16:27:00,
2013-04-11 11:32:00,34.8,28.3,29.80,West,277,6.0,10.0,77,0.00,CLR,SKC,0.00,WeatherDisplay:10.37,2013-04-11 16:32:00,
2013-04-11 11:42:00,34.9,28.1,29.80,WSW,256,7.0,13.0,76,0.00,CLR,SKC,0.00,WeatherDisplay:10.37,2013-04-11 16:42:00,
2013-04-11 11:52:00,35.1,27.9,29.80,West,271,8.0,12.0,75,0.00,CLR,SKC,0.00,WeatherDisplay:10.37,2013-04-11 16:52:00,
2013-04-11 12:02:00,35.2,28.1,29.80,West,264,9.0,15.0,75,0.00,CLR,SKC,0.00,WeatherDisplay:10.37,2013-04-11 17:02:00,
2013-04-11 12:07:00,35.4,28.9,29.80,WSW,253,2.0,10.0,77,0.00,CLR,SKC,0.00,WeatherDisplay:10.37,2013-04-11 17:07:00,
2013-04-11 12:12:00,35.4,28.9,29.80,West,268,3.0,12.0,77,0.00,CLR,SKC,0.00,WeatherDisplay:10.37,2013-04-11 17:12:00,
2013-04-11 12:17:00,35.4,28.9,29.80,West,261,6.0,12.0,77,0.00,CLR,SKC,0.00,WeatherDisplay:10.37,2013-04-11 17:17:00,
2013-04-11 12:22:00,35.8,29.3,29.80,West,269,6.0,12.0,77,0.00,CLR,SKC,0.00,WeatherDisplay:10.37,2013-04-11 17:22:00,
2013-04-11 12:32:00,36.4,28.9,29.79,West,261,5.0,12.0,74,0.00,CLR,SKC,0.00,WeatherDisplay:10.37,2013-04-11 17:32:00,
2013-04-11 12:37:00,36.6,28.8,29.79,West,262,7.0,15.0,73,0.00,CLR,SKC,0.00,WeatherDisplay:10.37,2013-04-11 17:37:00,
2013-04-11 12:42:00,36.7,28.8,29.79,WSW,253,3.0,8.0,73,0.00,CLR,SKC,0.00,WeatherDisplay:10.37,2013-04-11 17:42:00,
2013-04-11 12:52:00,37.2,29.0,29.79,West,269,7.0,15.0,72,0.00,CLR,SKC,0.00,WeatherDisplay:10.37,2013-04-11 17:52:00,
2013-04-11 13:02:00,37.4,28.8,29.79,WSW,254,3.0,12.0,71,0.00,CLR,SKC,0.00,WeatherDisplay:10.37,2013-04-11 18:02:00,
2013-04-11 13:12:00,37.8,29.6,29.80,West,280,5.0,10.0,72,0.00,CLR,SKC,0.00,WeatherDisplay:10.37,2013-04-11 18:12:00,
2013-04-11 13:17:00,37.7,28.8,29.79,WNW,287,5.0,10.0,70,0.00,CLR,SKC,0.00,WeatherDisplay:10.37,2013-04-11 18:17:00,
2013-04-11 13:27:00,37.8,28.6,29.79,WSW,256,7.0,10.0,69,0.00,CLR,SKC,0.00,WeatherDisplay:10.37,2013-04-11 18:27:00,
2013-04-11 13:32:00,37.7,28.8,29.80,West,261,3.0,10.0,70,0.00,CLR,SKC,0.00,WeatherDisplay:10.37,2013-04-11 18:32:00,
2013-04-11 13:37:00,37.9,29.4,29.79,WSW,258,3.0,10.0,71,0.00,CLR,SKC,0.00,WeatherDisplay:10.37,2013-04-11 18:37:00,
2013-04-11 13:47:00,38.4,29.5,29.78,West,266,2.0,15.0,70,0.00,CLR,SKC,0.00,WeatherDisplay:10.37,2013-04-11 18:47:00,
2013-04-11 13:52:00,38.9,30.3,29.78,West,277,1.0,8.0,71,0.00,CLR,SKC,0.00,WeatherDisplay:10.37,2013-04-11 18:52:00,
2013-04-11 14:02:00,39.0,29.0,29.78,WNW,282,6.0,13.0,67,0.00,CLR,SKC,0.00,WeatherDisplay:10.37,2013-04-11 19:02:00,
2013-04-11 14:12:00,39.5,29.8,29.78,West,260,6.0,13.0,68,0.00,CLR,SKC,0.00,WeatherDisplay:10.37,2013-04-11 19:12:00,
2013-04-11 14:17:00,39.7,30.0,29.78,West,278,5.0,13.0,68,0.00,CLR,SKC,0.00,WeatherDisplay:10.37,2013-04-11 19:17:00,
2013-04-11 14:27:00,39.5,29.4,29.78,WSW,253,5.0,8.0,67,0.00,CLR,SKC,0.00,WeatherDisplay:10.37,2013-04-11 19:27:00,
2013-04-11 14:32:00,39.3,28.8,29.78,West,272,6.0,15.0,66,0.00,CLR,SKC,0.00,WeatherDisplay:10.37,2013-04-11 19:32:00,
2013-04-11 14:37:00,39.1,29.4,29.79,West,262,6.0,10.0,68,0.00,CLR,SKC,0.00,WeatherDisplay:10.37,2013-04-11 19:37:00,
2013-04-11 14:42:00,39.3,29.2,29.78,West,262,6.0,12.0,67,0.00,CLR,SKC,0.00,WeatherDisplay:10.37,2013-04-11 19:42:00,
2013-04-11 14:47:00,39.2,28.8,29.78,West,279,7.0,16.0,66,0.00,CLR,SKC,0.00,WeatherDisplay:10.37,2013-04-11 19:47:00,
2013-04-11 14:52:00,39.4,29.3,29.77,West,270,8.0,12.0,67,0.00,CLR,SKC,0.00,WeatherDisplay:10.37,2013-04-11 19:52:00,
2013-04-11 14:57:00,39.9,29.8,29.78,West,270,5.0,13.0,67,0.00,CLR,SKC,0.00,WeatherDisplay:10.37,2013-04-11 19:57:00,
2013-04-11 15:02:00,40.3,29.8,29.77,WNW,288,5.0,10.0,66,0.00,CLR,SKC,0.00,WeatherDisplay:10.37,2013-04-11 20:02:00,
2013-04-11 15:07:00,40.3,29.5,29.77,WNW,283,3.0,10.0,65,0.00,CLR,SKC,0.00,WeatherDisplay:10.37,2013-04-11 20:07:00,
2013-04-11 15:17:00,40.3,30.2,29.77,West,280,2.0,8.0,67,0.00,CLR,SKC,0.00,WeatherDisplay:10.37,2013-04-11 20:17:00,
2013-04-11 15:22:00,40.6,30.1,29.77,West,281,3.0,10.0,66,0.00,CLR,SKC,0.00,WeatherDisplay:10.37,2013-04-11 20:22:00,
2013-04-11 15:32:00,40.9,30.1,29.76,WNW,297,5.0,7.0,65,0.00,CLR,SKC,0.00,WeatherDisplay:10.37,2013-04-11 20:32:00,
2013-04-11 15:42:00,40.8,29.6,29.76,NW,304,7.0,10.0,64,0.00,CLR,SKC,0.00,WeatherDisplay:10.37,2013-04-11 20:42:00,
2013-04-11 15:47:00,40.8,29.9,29.76,WNW,294,3.0,10.0,65,0.00,CLR,SKC,0.00,WeatherDisplay:10.37,2013-04-11 20:47:00,
2013-04-11 15:57:00,41.0,30.2,29.75,WNW,291,1.0,12.0,65,0.00,CLR,SKC,0.00,WeatherDisplay:10.37,2013-04-11 20:57:00,
2013-04-11 16:07:00,41.8,29.7,29.75,WNW,287,7.0,12.0,62,0.00,CLR,SKC,0.00,WeatherDisplay:10.37,2013-04-11 21:07:00,
2013-04-11 16:12:00,42.0,30.3,29.75,WNW,284,2.0,10.0,63,0.00,CLR,SKC,0.00,WeatherDisplay:10.37,2013-04-11 21:12:00,
2013-04-11 16:17:00,42.0,29.9,29.75,West,280,5.0,7.0,62,0.00,CLR,SKC,0.00,WeatherDisplay:10.37,2013-04-11 21:17:00,
2013-04-11 16:22:00,41.6,29.6,29.75,West,278,3.0,12.0,62,0.00,CLR,SKC,0.00,WeatherDisplay:10.37,2013-04-11 21:22:00,
2013-04-11 16:27:00,41.5,29.4,29.76,WNW,285,8.0,13.0,62,0.00,CLR,SKC,0.00,WeatherDisplay:10.37,2013-04-11 21:27:00,
2013-04-11 16:32:00,41.1,29.5,29.75,NW,306,6.0,13.0,63,0.00,CLR,SKC,0.00,WeatherDisplay:10.37,2013-04-11 21:32:00,
2013-04-11 16:37:00,41.0,29.4,29.75,WNW,293,6.0,8.0,63,0.00,CLR,SKC,0.00,WeatherDisplay:10.37,2013-04-11 21:37:00,
2013-04-11 16:42:00,40.9,29.3,29.75,WNW,288,5.0,12.0,63,0.00,CLR,SKC,0.00,WeatherDisplay:10.37,2013-04-11 21:42:00,
2013-04-11 16:47:00,40.8,29.2,29.75,WNW,296,6.0,12.0,63,0.00,CLR,SKC,0.00,WeatherDisplay:10.37,2013-04-11 21:47:00,
2013-04-11 16:52:00,40.8,29.6,29.76,WNW,293,7.0,11.0,64,0.00,CLR,SKC,0.00,WeatherDisplay:10.37,2013-04-11 21:52:00,
2013-04-11 17:02:00,40.7,29.5,29.76,WNW,292,6.0,12.0,64,0.00,CLR,SKC,0.00,WeatherDisplay:10.37,2013-04-11 22:02:00,
2013-04-11 17:07:00,40.6,29.4,29.76,WNW,288,7.0,12.0,64,0.00,CLR,SKC,0.00,WeatherDisplay:10.37,2013-04-11 22:07:00,
2013-04-11 17:17:00,40.4,29.2,29.76,WNW,290,8.0,12.0,64,0.00,CLR,SKC,0.00,WeatherDisplay:10.37,2013-04-11 22:17:00,
2013-04-11 17:22:00,40.4,29.2,29.76,WNW,293,6.0,8.0,64,0.00,CLR,SKC,0.00,WeatherDisplay:10.37,2013-04-11 22:22:00,
2013-04-11 17:27:00,40.4,28.8,29.76,WNW,303,7.0,13.0,63,0.00,CLR,SKC,0.00,WeatherDisplay:10.37,2013-04-11 22:27:00,
2013-04-11 17:32:00,40.5,29.7,29.76,WNW,295,3.0,8.0,65,0.00,CLR,SKC,0.00,WeatherDisplay:10.37,2013-04-11 22:32:00,
2013-04-11 17:42:00,40.6,29.4,29.76,NW,308,5.0,11.0,64,0.00,CLR,SKC,0.00,WeatherDisplay:10.37,2013-04-11 22:42:00,
2013-04-11 17:52:00,40.5,28.9,29.76,WNW,282,2.0,12.0,63,0.00,CLR,SKC,0.00,WeatherDisplay:10.37,2013-04-11 22:52:00,
2013-04-11 18:02:00,40.3,28.7,29.76,WNW,290,6.0,13.0,63,0.00,CLR,SKC,0.00,WeatherDisplay:10.37,2013-04-11 23:02:00,
2013-04-11 18:07:00,40.2,28.6,29.76,WNW,299,7.0,15.0,63,0.00,CLR,SKC,0.00,WeatherDisplay:10.37,2013-04-11 23:07:00,
2013-04-11 18:12:00,40.2,28.6,29.76,WNW,299,5.0,12.0,63,0.00,CLR,SKC,0.00,WeatherDisplay:10.37,2013-04-11 23:12:00,
2013-04-11 18:22:00,40.1,28.1,29.77,NW,306,8.0,15.0,62,0.00,CLR,SKC,0.00,WeatherDisplay:10.37,2013-04-11 23:22:00,
2013-04-11 18:32:00,40.0,28.4,29.77,WNW,301,7.0,16.0,63,0.00,CLR,SKC,0.00,WeatherDisplay:10.37,2013-04-11 23:32:00,
2013-04-11 18:37:00,39.9,28.3,29.77,WNW,286,6.0,10.0,63,0.00,CLR,SKC,0.00,WeatherDisplay:10.37,2013-04-11 23:37:00,
2013-04-11 18:47:00,39.8,28.6,29.78,WNW,290,5.0,13.0,64,0.00,CLR,SKC,0.00,WeatherDisplay:10.37,2013-04-11 23:47:00,
2013-04-11 18:57:00,39.7,28.9,29.78,WNW,303,5.0,7.0,65,0.00,CLR,SKC,0.00,WeatherDisplay:10.37,2013-04-11 23:57:00,
2013-04-11 19:07:00,39.5,28.7,29.78,NW,311,3.0,10.0,65,0.00,CLR,SKC,0.00,WeatherDisplay:10.37,2013-04-12 00:07:00,
2013-04-11 19:17:00,39.3,28.9,29.78,WNW,291,3.0,7.0,66,0.00,CLR,SKC,0.00,WeatherDisplay:10.37,2013-04-12 00:17:00,
2013-04-11 19:22:00,39.3,29.3,29.78,WNW,300,2.0,8.0,67,0.00,CLR,SKC,0.00,WeatherDisplay:10.37,2013-04-12 00:22:00,
2013-04-11 19:32:00,39.2,29.2,29.78,WNW,286,6.0,10.0,67,0.00,CLR,SKC,0.00,WeatherDisplay:10.37,2013-04-12 00:32:00,
2013-04-11 19:37:00,39.1,29.1,29.78,WNW,297,5.0,8.0,67,0.00,CLR,SKC,0.00,WeatherDisplay:10.37,2013-04-12 00:37:00,
2013-04-11 19:42:00,39.1,29.0,29.78,WNW,286,3.0,8.0,67,0.00,CLR,SKC,0.00,WeatherDisplay:10.37,2013-04-12 00:42:00,
2013-04-11 19:52:00,38.9,29.3,29.79,West,281,1.0,8.0,68,0.00,CLR,SKC,0.00,WeatherDisplay:10.37,2013-04-12 00:52:00,
2013-04-11 19:57:00,38.9,29.3,29.79,WNW,282,3.0,8.0,68,0.00,CLR,SKC,0.00,WeatherDisplay:10.37,2013-04-12 00:57:00,
2013-04-11 20:07:00,38.8,29.5,29.79,WNW,290,2.0,7.0,69,0.00,CLR,SKC,0.00,WeatherDisplay:10.37,2013-04-12 01:07:00,
2013-04-11 20:12:00,38.8,29.5,29.79,West,281,3.0,5.0,69,0.00,CLR,SKC,0.00,WeatherDisplay:10.37,2013-04-12 01:12:00,
2013-04-11 20:22:00,38.7,29.8,29.79,WNW,283,1.0,5.0,70,0.00,CLR,SKC,0.00,WeatherDisplay:10.37,2013-04-12 01:22:00,
2013-04-11 20:27:00,38.7,29.4,29.79,West,278,6.0,8.0,69,0.00,CLR,SKC,0.00,WeatherDisplay:10.37,2013-04-12 01:27:00,
2013-04-11 20:32:00,38.6,29.0,29.79,WNW,282,5.0,10.0,68,0.00,CLR,SKC,0.00,WeatherDisplay:10.37,2013-04-12 01:32:00,
2013-04-11 20:42:00,38.6,29.0,29.79,WNW,287,2.0,10.0,68,0.00,CLR,SKC,0.00,WeatherDisplay:10.37,2013-04-12 01:42:00,
2013-04-11 20:47:00,38.6,28.6,29.79,WNW,282,3.0,10.0,67,0.00,CLR,SKC,0.00,WeatherDisplay:10.37,2013-04-12 01:47:00,
2013-04-11 20:52:00,38.5,28.1,29.80,West,278,5.0,8.0,66,0.00,CLR,SKC,0.00,WeatherDisplay:10.37,2013-04-12 01:52:00,
2013-04-11 20:57:00,38.5,28.1,29.80,WNW,288,2.0,10.0,66,0.00,CLR,SKC,0.00,WeatherDisplay:10.37,2013-04-12 01:57:00,
2013-04-11 21:02:00,38.5,28.1,29.80,WNW,289,5.0,10.0,66,0.00,CLR,SKC,0.00,WeatherDisplay:10.37,2013-04-12 02:02:00,
2013-04-11 21:07:00,38.5,28.1,29.80,WNW,287,3.0,8.0,66,0.00,CLR,SKC,0.00,WeatherDisplay:10.37,2013-04-12 02:07:00,
2013-04-11 21:17:00,38.3,28.3,29.80,WNW,283,5.0,11.0,67,0.00,CLR,SKC,0.00,WeatherDisplay:10.37,2013-04-12 02:17:00,
2013-04-11 21:22:00,38.2,28.2,29.80,WNW,284,3.0,7.0,67,0.00,CLR,SKC,0.00,WeatherDisplay:10.37,2013-04-12 02:22:00,
2013-04-11 21:27:00,38.1,28.1,29.81,WNW,286,5.0,5.0,67,0.00,CLR,SKC,0.00,WeatherDisplay:10.37,2013-04-12 02:27:00,
2013-04-11 21:32:00,38.1,28.1,29.80,WNW,295,0.0,10.0,67,0.00,CLR,SKC,0.00,WeatherDisplay:10.37,2013-04-12 02:32:00,
2013-04-11 21:37:00,38.0,28.0,29.81,West,279,5.0,10.0,67,0.00,CLR,SKC,0.00,WeatherDisplay:10.37,2013-04-12 02:37:00,
2013-04-11 21:42:00,38.0,28.0,29.81,West,268,1.0,7.0,67,0.00,CLR,SKC,0.00,WeatherDisplay:10.37,2013-04-12 02:42:00,
2013-04-11 21:47:00,38.0,27.7,29.81,WNW,285,6.0,10.0,66,0.00,CLR,SKC,0.00,WeatherDisplay:10.37,2013-04-12 02:47:00,
2013-04-11 21:57:00,38.0,28.0,29.81,WSW,258,2.0,5.0,67,0.00,CLR,SKC,0.00,WeatherDisplay:10.37,2013-04-12 02:57:00,
2013-04-11 22:02:00,38.0,28.0,29.81,West,274,3.0,10.0,67,0.00,CLR,SKC,0.00,WeatherDisplay:10.37,2013-04-12 03:02:00,
2013-04-11 22:07:00,37.9,27.9,29.81,West,281,3.0,8.0,67,0.00,CLR,SKC,0.00,WeatherDisplay:10.37,2013-04-12 03:07:00,
2013-04-11 22:12:00,37.8,28.2,29.81,WNW,283,2.0,5.0,68,0.00,CLR,SKC,0.00,WeatherDisplay:10.37,2013-04-12 03:12:00,
2013-04-11 22:17:00,37.7,28.1,29.81,West,279,1.0,3.0,68,0.00,CLR,SKC,0.00,WeatherDisplay:10.37,2013-04-12 03:17:00,
2013-04-11 22:22:00,37.5,28.3,29.81,West,277,1.0,7.0,69,0.00,CLR,SKC,0.00,WeatherDisplay:10.37,2013-04-12 03:22:00,
2013-04-11 22:32:00,37.3,28.0,29.81,WNW,286,2.0,7.0,69,0.00,CLR,SKC,0.00,WeatherDisplay:10.37,2013-04-12 03:32:00,
2013-04-11 22:37:00,37.2,28.0,29.81,WNW,282,3.0,13.0,69,0.00,CLR,SKC,0.00,WeatherDisplay:10.37,2013-04-12 03:37:00,
2013-04-11 22:42:00,37.2,28.0,29.82,WNW,282,6.0,7.0,69,0.00,CLR,SKC,0.00,WeatherDisplay:10.37,2013-04-12 03:42:00,
2013-04-11 22:47:00,37.3,28.1,29.82,West,281,2.0,7.0,69,0.00,CLR,SKC,0.00,WeatherDisplay:10.37,2013-04-12 03:47:00,
2013-04-11 22:52:00,37.3,28.1,29.82,West,273,2.0,5.0,69,0.00,CLR,SKC,0.00,WeatherDisplay:10.37,2013-04-12 03:52:00,
2013-04-11 23:02:00,37.3,28.0,29.81,West,265,1.0,8.0,69,0.00,CLR,SKC,0.00,WeatherDisplay:10.37,2013-04-12 04:02:00,
2013-04-11 23:07:00,37.1,28.2,29.81,West,274,2.0,7.0,70,0.00,CLR,SKC,0.00,WeatherDisplay:10.37,2013-04-12 04:07:00,
2013-04-11 23:12:00,36.9,28.1,29.81,West,273,2.0,7.0,70,0.00,CLR,SKC,0.00,WeatherDisplay:10.37,2013-04-12 04:12:00,
2013-04-11 23:22:00,36.6,28.0,29.81,West,281,3.0,7.0,71,0.00,CLR,SKC,0.00,WeatherDisplay:10.37,2013-04-12 04:22:00,
2013-04-11 23:27:00,36.4,27.9,29.81,West,263,2.0,8.0,71,0.00,CLR,SKC,0.00,WeatherDisplay:10.37,2013-04-12 04:27:00,
2013-04-11 23:32:00,36.2,28.1,29.81,WSW,257,1.0,10.0,72,0.00,CLR,SKC,0.00,WeatherDisplay:10.37,2013-04-12 04:32:00,
2013-04-11 23:37:00,36.2,27.7,29.81,WNW,285,5.0,10.0,71,0.00,CLR,SKC,0.00,WeatherDisplay:10.37,2013-04-12 04:37:00,
2013-04-11 23:42:00,36.3,27.1,29.81,WNW,290,5.0,12.0,69,0.00,CLR,SKC,0.00,WeatherDisplay:10.37,2013-04-12 04:42:00,
2013-04-11 23:47:00,36.4,26.9,29.81,WNW,287,5.0,10.0,68,0.00,CLR,SKC,0.00,WeatherDisplay:10.37,2013-04-12 04:47:00,
2013-04-11 23:52:00,36.5,27.0,29.81,WNW,286,3.0,10.0,68,0.00,CLR,SKC,0.00,WeatherDisplay:10.37,2013-04-12 04:52:00,
2013-04-11 23:57:00,36.6,26.7,29.81,WNW,291,7.0,12.0,67,0.00,CLR,SKC,0.00,WeatherDisplay:10.37,2013-04-12 04:57:00,